Theta_e
311 307 304 307 310 312 315 321 323 330 336 337 334 350 353 361 360 361 362 360 364 363 364 364 364 364 364 363 362 362 362 362
308 306 308 310 312 313 315 318 323 329 329 333 346 351 358 361 360 359 359 361 360 363 363 363 363 363 364 364 364 363 363 362
306 307 310 312 312 314 314 317 319 323 323 325 343 355 357 357 359 357 358 362 356 361 362 362 362 362 363 364 363 363 363 363
304 306 309 311 313 314 315 317 318 319 320 319 331 340 350 352 353 355 357 360 357 359 359 360 361 361 362 362 363 363 363 363
307 307 307 310 314 312 314 317 315 321 316 319 326 334 346 349 350 351 355 358 361 355 357 358 359 360 360 361 361 361 361 361
308 306 307 311 312 314 313 313 319 320 315 316 321 331 336 340 344 347 349 352 358 362 360 356 352 359 359 360 359 360 360 360
306 306 308 312 311 314 316 315 316 317 318 319 321 323 327 329 331 335 338 342 345 352 356 360 359 360 358 358 358 359 358 359
311 310 310 312 311 313 312 313 313 316 318 320 321 322 321 321 322 324 327 331 336 343 347 351 352 360 364 361 355 351 349 350
309 311 312 311 310 313 311 310 315 314 317 319 320 321 321 321 323 323 325 324 326 335 346 348 347 355 361 360 360 359 357 357
310 310 310 309 312 310 311 315 318 318 320 321 321 323 324 325 326 327 329 332 332 333 336 344 348 349 355 360 363 361 358 362
312 311 312 313 310 310 314 317 320 321 321 322 324 325 327 329 330 331 331 333 334 337 338 339 341 345 346 352 356 361 361 361
312 313 313 311 310 312 315 318 318 320 320 322 323 325 326 327 328 330 331 333 335 335 337 337 340 345 351 349 349 347 350 353
311 312 311 313 308 309 316 317 316 317 319 321 322 324 325 326 327 330 331 334 335 335 335 339 340 340 342 344 346 345 343 355
311 311 312 310 305 313 316 316 315 316 318 319 321 323 325 326 327 329 331 332 334 334 335 337 340 339 338 336 339 344 345 347
306 311 310 309 306 314 315 314 314 316 317 318 320 322 325 326 327 328 330 332 333 335 334 336 339 337 338 345 338 336 344 347
303 309 309 307 307 313 314 313 313 315 317 318 319 320 324 325 326 327 329 332 333 334 336 337 336 337 335 334 335 336 335 339
306 308 306 306 307 309 314 314 313 315 316 317 318 322 323 324 325 326 328 329 331 332 335 334 332 331 331 331 333 334 338 345
306 307 307 306 306 309 311 313 314 314 315 316 318 320 322 323 324 325 326 327 329 331 333 334 332 333 333 332 333 333 334 342
303 306 307 306 305 308 310 313 314 316 317 317 317 317 319 320 322 323 324 325 326 329 332 333 334 333 333 335 335 331 333 334
303 302 298 306 296 305 310 311 312 313 314 315 317 317 318 318 319 322 322 324 326 328 331 332 334 332 331 327 326 330 332 333
Wind_Speed
8 13 14 9 7 6 1 1 2 3 6 10 6 12 9 9 9 12 11 12 15 11 9 10 10 10 10 12 11 11 10 11
11 16 3 9 8 4 4 4 2 6 12 10 4 5 12 9 9 10 12 13 14 11 9 10 11 10 10 10 12 12 12 11
12 14 7 1 4 5 1 4 2 3 9 12 8 8 10 8 9 9 11 15 14 10 9 10 10 11 10 10 10 11 12 11
13 7 5 4 1 5 2 4 5 5 9 9 8 7 8 9 8 10 10 12 13 11 8 8 8 8 7 8 9 10 10 10
16 8 7 3 2 3 3 3 5 6 5 8 9 6 5 7 7 8 9 11 10 10 9 7 8 9 9 8 7 7 7 8
11 7 9 7 5 1 6 7 2 6 5 9 8 4 7 5 5 11 9 11 11 9 13 10 11 10 10 10 10 9 8 9
11 8 7 7 11 5 2 7 1 5 11 9 4 7 4 1 6 2 5 3 7 7 13 11 12 16 13 10 10 9 10 11
11 4 2 6 7 4 6 8 6 8 9 3 5 2 6 4 7 6 3 4 10 6 10 7 5 14 10 11 10 11 12 12
2 4 7 2 5 3 7 7 11 7 10 9 4 3 6 7 11 11 12 7 13 10 5 9 12 5 6 5 8 9 12 11
7 4 6 7 6 1 5 11 7 5 5 5 5 8 10 11 11 12 10 10 10 13 9 10 9 10 6 6 3 9 11 13
3 4 6 6 6 5 6 3 5 6 6 8 8 8 8 9 9 10 10 11 11 11 8 8 10 9 9 8 5 13 6 9
4 8 4 10 4 6 8 3 5 6 7 9 9 10 9 10 10 11 10 11 12 11 8 10 8 11 10 9 9 9 10 10
8 8 6 8 7 9 5 3 2 5 5 7 8 9 9 10 9 10 10 11 11 11 10 9 9 9 9 10 10 10 10 10
13 5 8 9 7 12 5 4 2 2 5 2 6 8 9 9 10 10 11 11 11 11 13 11 11 10 9 10 11 11 10 10
10 2 6 7 9 14 3 3 2 4 1 4 4 7 8 10 11 11 11 11 12 12 12 13 13 11 11 11 10 11 12 10
7 11 8 11 11 14 6 5 5 2 2 1 5 7 9 10 11 11 11 11 12 11 12 13 11 10 9 9 10 11 11 12
2 3 6 13 10 10 12 6 7 4 1 4 5 6 8 9 11 12 12 12 12 13 12 11 10 10 9 9 10 12 11 12
1 4 6 14 12 11 6 6 1 1 2 5 8 8 9 9 10 11 12 13 13 12 12 11 10 10 10 10 11 12 13 14
9 12 15 17 16 16 8 6 4 6 3 4 6 10 11 12 10 11 13 12 13 12 13 12 13 10 9 10 10 11 12 12
10 12 11 5 11 12 16 12 11 6 4 5 7 12 12 12 13 12 12 13 12 12 12 12 13 12 14 13 14 12 12 12
Wind_Direction
234 237 270 51 105 29 352 117 264 106 53 18 24 16 72 65 88 99 124 141 115 133 136 146 147 146 149 151 157 171 175 173
255 250 121 2 67 331 197 175 208 358 95 90 76 68 54 78 98 137 122 117 131 137 145 149 152 154 152 158 162 169 174 180
230 255 45 308 15 298 275 48 240 274 89 90 82 90 105 107 117 122 119 111 141 144 157 161 158 161 163 166 169 175 178 182
238 197 132 209 228 265 292 78 65 157 98 81 108 88 98 99 103 104 117 125 131 144 160 166 170 171 173 174 178 182 186 186
276 130 172 138 302 297 338 130 67 16 156 105 74 88 83 118 123 118 126 131 143 165 167 180 186 185 185 188 190 198 198 196
257 174 202 116 248 64 277 75 116 294 164 135 79 333 166 173 150 151 159 155 161 182 174 192 184 195 203 203 199 200 205 206
230 269 136 130 241 114 95 261 319 33 38 38 24 324 300 334 206 156 45 178 253 182 181 187 200 176 182 202 219 218 218 216
35 14 16 120 278 73 252 198 179 180 137 77 313 6 310 307 313 339 356 347 2 37 0 308 234 128 187 200 210 216 221 222
95 24 323 303 229 190 286 273 37 350 330 27 309 27 325 345 21 353 5 355 357 6 326 300 299 241 155 210 203 206 216 226
144 133 248 252 303 261 308 32 19 49 36 14 20 25 18 9 8 0 8 21 336 1 347 329 310 301 258 178 252 230 187 203
164 215 250 276 251 285 94 10 72 78 65 67 42 34 45 24 20 3 4 7 352 339 345 328 309 289 287 288 220 232 182 202
209 212 149 238 176 191 119 189 106 78 64 56 60 36 26 26 15 8 2 2 353 337 339 339 317 311 300 280 274 264 271 268
204 205 142 274 180 208 115 177 127 89 75 73 54 45 37 20 18 11 355 0 348 329 344 326 318 309 295 284 271 265 263 254
144 183 126 247 232 113 183 185 156 15 117 35 75 43 23 18 11 7 354 350 341 341 329 339 320 307 296 286 291 274 260 261
143 179 343 233 304 127 195 211 254 246 340 69 18 34 35 10 6 0 350 347 338 339 334 330 317 305 290 278 267 265 275 265
280 140 216 263 258 162 159 271 219 273 325 45 1 13 17 6 359 354 345 341 334 331 330 328 309 298 285 276 269 263 255 259
330 36 275 275 296 273 160 221 220 214 145 345 343 347 8 358 345 347 342 335 332 326 330 328 313 317 300 301 304 298 288 261
312 210 268 281 279 277 198 190 324 233 306 339 323 333 337 334 335 340 334 331 328 323 322 319 309 326 302 296 289 290 293 299
316 320 274 250 262 217 133 159 160 206 234 283 323 323 327 327 329 334 327 330 322 321 315 311 309 302 297 291 276 269 259 250
285 280 289 333 292 224 157 182 181 208 251 310 337 319 321 331 335 332 323 324 324 319 315 302 319 313 319 306 291 286 288 285